{"data":{"norad_id":55667,"epoch":"2026-05-24T21:42:15.528096Z","epoch_age_seconds":83240,"freshness":"FRESH","line1":"1 55667U 23021AR  26144.90434639  .00000005  00000+0  82463-5 0  9994","line2":"2 55667  69.9989 332.1764 0002860 270.9330  89.1502 14.98329791180699","mean_motion":14.98329791,"eccentricity":0.000286,"inclination_deg":69.9989,"raan_deg":332.1764,"arg_perigee_deg":270.933,"mean_anomaly_deg":89.1502,"bstar":8.2463e-6,"rev_number":18069,"period_min":96.107012531529,"perigee_km":570.0687819081,"apogee_km":574.04429261141,"semimajor_km":6950.1935372598,"source":"CELESTRAK","updated_at":"2026-05-25T13:38:17.875272Z"}}